Regional Weather Roundup
Issued by NWS

Home | Current Version | Previous Version | Text Only | Print | Product List | Glossary On
Versions: 1 2 3 4 5 6 7 8 9 10 11 12 13 14 15 16 17 18 19 20 21 22 23 24 25 26 27 28 29 30 31 32 33 34 35 36 37 38 39 40 41 42 43 44 45 46 47 48 49 50
000
ASUS45 KBOI 240010
RWRID
WEATHER ROUNDUP FOR IDAHO
NATIONAL WEATHER SERVICE BOISE ID
600 PM MDT WED JUL 23 2014

NOTE: "FAIR" INDICATES FEW OR NO CLOUDS BELOW 12000 FEET
WITH NO SIGNIFICANT WEATHER AND/OR OBSTRUCTIONS TO VISIBILITY

IDZ012-014-240100-
SOUTHWEST IDAHO


CITY           SKY/WX    TMP DP  RH WIND       PRES   REMARKS
BOISE          MOSUNNY   94  42  16 NW7       29.88F HX  90
CALDWELL       MOSUNNY   90  55  31 NE3       29.90S
MOUNTAIN HOME  MOSUNNY   96  44  16 W10       29.89F HX  92
$$

IDZ016-017-240100-
SOUTHCENTRAL IDAHO


CITY           SKY/WX    TMP DP  RH WIND       PRES   REMARKS
BURLEY         PTSUNNY   89  45  21 NE3       29.95F
JEROME         MOSUNNY   91  55  29 W8        29.95F
TWIN FALLS     MOSUNNY   96  48  19 NW15      29.95F HX  92
$$

IDZ019>023-240100-
SOUTHEAST IDAHO


CITY           SKY/WX    TMP DP  RH WIND       PRES   REMARKS
IDAHO FALLS    MOSUNNY   92  40  16 SW6       30.03F
POCATELLO      MOSUNNY   96  38  13 NW8       30.00F HX  91
REXBURG        MOSUNNY   90  35  14 S8        30.05F
$$

IDZ006-010-011-018-031-032-240100-
CENTRAL IDAHO MOUNTAINS


CITY           SKY/WX    TMP DP  RH WIND       PRES   REMARKS
MCCALL         LGT RAIN  78  38  23 S20G48    30.05S SQUALL
HAILEY         PTSUNNY   84  48  28 SE12      30.09F
STANLEY          N/A     73  46  38 VRB6      30.15F
SALMON         PTSUNNY   84  48  28 N9        29.87F
CHALLIS        MOSUNNY   89  25  10 S9G25     29.99F
$$

IDZ002-004-006-007-026-240100-
NORTHERN IDAHO


CITY           SKY/WX    TMP DP  RH WIND       PRES   REMARKS
LEWISTON       PTSUNNY   69  52  54 W44G56    29.92R THUNDER
LOWELL           N/A     85  60  42 CALM      29.75S
COEUR D`ALENE  CLOUDY    64  55  72 CALM      29.88R THUNDER
MULLAN PASS    PTSUNNY   65  45  48 VRB5      30.04F
$$


USA.gov is the U.S. government's official web portal to all federal, state and local government web resources and services.